カタログに戻る

STARLINK-5368

運用中通信VLEO
NORAD 54840·PAYLOAD·🇺🇸 United States

打ち上げ Dec 28, 2022 から Cape Canaveral Space Force Station

Loading…

次のパス (今後24時間)

TLE

最新Source: CelesTrak SupGP

元期: Sep 15, 2026, 03:12 UTC

1 54840C 22177W   26258.13381944  .00057923  00000+0  20980-2 0  2580
2 54840  43.0014 142.8909 0001168 272.1215 134.6936 15.27549081    19

AllMySatでSTARLINK-5368をリアルタイム追跡

Download on the App Store